Voltar ao catálogo

COMS 1

AtivoMeteoGEO
NORAD 36744·PAYLOAD·🇰🇷 South Korea

Lançado Jun 26, 2010 de Guiana Space Centre

Loading…

TLE

AtualizadoSource: Space-Track

Época: Sep 14, 2026, 14:10 UTC

1 36744U 10032A   26257.59052774  .00000039  00000-0  00000-0 0  9993
2 36744   5.0298  74.2325 0010614  19.4104 190.2592  0.99163195 51977

Acompanhe COMS 1 em tempo real com AllMySat

Download on the App Store